Location: �terpigny
(49.8910°N, 2.9249°E)
Time: 03:59:16
(UTC+00:00)

EO-88 - Pass Details

Date: 29 June 2022
Orbit: 454 x 462 km, 97.3° (Epoch: 07 August)

Event Time Altitude Azimuth Distance (km) Brightness Sun altitude
Exits shadow 21:24:46 - 182° (S) 1,667 ? -10.0°
Reaches altitude 10° 21:24:52 10° 182° (S) 1,625 ? -10.0°
Maximum altitude 21:28:17 52° 260° (W) 591 ? -10.3°
Drops below altitude 10° 21:31:44 10° 338° (NNW) 1,638 ? -10.6°
Sets 21:33:50 0° 343° (NNW) 2,518 ? -10.8°
